map of BJL home
BJL - Airport
Location
City:  Banjul, Gambia
Name:Banjul International Airport
Old (Alt.):Yundum International Airport
ICAO:GBYD
IATA:BJL

Details
Type:Airport (Aerodrome, Airfield)
Use:Public/Civil, International (customs port of entry)
Latitude:1320'17"N (13.337961)
Longitude:1639'08"W (-16.652205)
Datum:WGS 1984
Elevation:95 ft (29 m)
Variation:7.39W (WMM2015 magnetic declination)
0.11 annual change
Runways:1
Longest:11811 × 148 ft (3600 × 45 m), paved

Time
Time Zone:UTC+0
Local Time:

Weather
METAR:GBYD 290000Z VRB01KT 8000 NSC 29/19 Q1009
TAF:GBYD 282330Z 2900/3006 34010KT 8000 NSC

Related Locations
Nearby:
Farthest:NNB: 12250 mi / 19715 km
Santa Ana Island (Ghupuna) [Santa Ana Airport], SB

Find:

   beyond  
but within

Other Information
Maps:
NOTAMs:
Links:
Sources:

  
flag of Gambia   

Sectional Chart

Flight Planning
at skyvector.com

Satellite Image

Google Maps Satellite view

 

Copyright © 2004-2017 Karl L. Swartz. All rights reserved.
The Great Circle Mapper name and logo are trademarks of the Great Circle Mapper.
All other trademarks mentioned herein belong to their respective owners.
Please see credits for attibutions and further copyright information.

  Follow gcmap on Facebook Follow gcmap on Twitter Follow gcmap on Google+ GCmap on LinkedIn

hCard Microformat

Geo Microformat